This is the latest recevied weather packets stored in our database for station/object W4SNA-3. If no packets are shown the sender has not sent any weather packets the latest 10 day(s).
| Time | Temp. | Humidity | Pressure | Rain* | Wind** | Luminosity | Snow |
|---|---|---|---|---|---|---|---|
| 1777738624 | 11.11° C | 49% | 1011.2 hPa | 0 mm | - | - | - |
| 1777738315 | 10.56° C | 49% | 1011.1 hPa | 0 mm | - | - | - |
| 1777738019 | 10.56° C | 50% | 1011.1 hPa | 0 mm | - | - | - |
| 1777737714 | 10° C | 52% | 1011.1 hPa | 0 mm | - | - | - |
| 1777737414 | 9.44° C | 51% | 1011 hPa | 0 mm | - | - | - |
| 1777737114 | 9.44° C | 53% | 1011.1 hPa | 0 mm | - | - | - |
| 1777736825 | 9.44° C | 55% | 1011.1 hPa | 0 mm | - | - | - |
| 1777736307 | 8.33° C | 56% | 1011.1 hPa | 0 mm | - | - | - |
| 1777736005 | 7.78° C | 60% | 1011.1 hPa | 0 mm | - | - | - |
| 1777735497 | 7.22° C | 57% | 1011.4 hPa | 0 mm | - | - | - |
| 1777735185 | 7.22° C | 58% | 1011.1 hPa | 0 mm | - | - | - |
| 1777734885 | 6.67° C | 57% | 1010.9 hPa | 0 mm | - | - | - |
| 1777734327 | 6.11° C | 59% | 1010.6 hPa | 0 mm | - | - | - |
| 1777734024 | 6.11° C | 59% | 1010.5 hPa | 0 mm | - | - | - |
| 1777733727 | 6.11° C | 60% | 1010.5 hPa | 0 mm | - | - | - |
| 1777733424 | 6.11° C | 60% | 1010.4 hPa | 0 mm | - | - | - |
| 1777733124 | 6.11° C | 60% | 1010.3 hPa | 0 mm | - | - | - |
| 1777732824 | 6.11° C | 61% | 1010.6 hPa | 0 mm | - | - | - |
| 1777732524 | 6.11° C | 61% | 1010.3 hPa | 0 mm | - | - | - |
| 1777732224 | 6.11° C | 60% | 1010.2 hPa | 0 mm | - | - | - |
| 1777731928 | 6.11° C | 62% | 1010.1 hPa | 0 mm | - | - | - |
| 1777731624 | 6.11° C | 62% | 1010.1 hPa | 0 mm | - | - | - |
| 1777731324 | 6.11° C | 61% | 1010.1 hPa | 0 mm | - | - | - |
| 1777731024 | 6.11° C | 62% | 1009.9 hPa | 0 mm | - | - | - |
| 1777730724 | 6.11° C | 59% | 1010.1 hPa | 0 mm | - | - | - |
* Rain latest hour (hover to see other rain measurements)
** Current wind speed in m/s (hover to see current wind gust speed)